THORAD AGENA D DEB, 4950

Orbit data source: Space-Track

THORAD AGENA D DEB, 4950 is space debris in SSO originally from a launch on Wed, 08 Apr 1970 UTC launched from the Air Force Western Test Range (AFWTR). Debris objects in space refer to the collection of defunct objects orbiting the Earth. Examples of debris include non-operational satellites, rocket bodies, and fragments generated from explosions, collisions, or faulty payload assembly.

Loading next visibility...
Identifier
4950, 1970-025GL
Orbit
SSO
Country
Flag of USUS
Related business
Manufacturer
Unknown
Mission
Spacecraft
Bus & Motor
Unknown
Mass
Unknown
Launch date (UTC)
1970-04-08 (56 years ago)
Launch vehicle
Unknown
Launch site
Air Force Western Test Range (AFWTR)
Object type
Payload
Rocket body
Debris
Shape & HBR
Unknown shape, 0.1 m
Radar Cross Section
Medium (>0.1 m² and <1 m²)

Expand to show TLE details & history
Last TLE update: 2 days ago

TLE from 2 days ago
0 THORAD AGENA D DEB
1  4950U 70025GL  26235.25094978  .00000129  00000-0  43301-3 0  9990
2  4950  99.8212 122.5445 0219193 225.3201 264.2323 13.10224731692287
Epoch: 2026-08-23T06:01Z
TLE epoch observation values (Epoch: 2026-08-23T06:01:22.060Z)
Latitude
51.93647°
Longitude
-106.64074°
Altitude
1,250.92 km
Speed
7.225 km/s
True Right ascension
21h 01m 00s
True Declination
51° 46' 49"
Sunlit
Object was in daylight at epoch
Visualization orbit readout
Latitude
Unknown
Longitude
Unknown
Altitude
Unknown
Speed
Unknown
Apparent Right ascension
Unknown
Apparent Declination
Unknown
Sunlit
N/A
Visualization observer readout
Local Sidereal Time
21:10:51
Azimuth
Unknown
Elevation
Unknown
Doppler factor
Unknown
Orbital elements
Apogee altitude
1,386.187 km
Perigee altitude
1,053.111 km
Semi-major axis
7,597.786 km
Eccentricity
0.02192
Inclination
99.8212°
RAAN
122.5445°
Arg. of periapsis
225.3201°
True anomaly
261.7409°
Mean anomaly
264.2323°
Eccentric anomaly
262.98582°
Mean motion
3.27727 °/min
Orbital period
109.85 mins
BSTAR
0.00043301
Loading maneuver chart data...
Computing Atmospheric mass density...

Documentation

Showing up to 5 results
|